Вернуться в каталог

SICH 1

АктивенНаукаPO
NORAD 23657·PAYLOAD·🇺🇦 Ukraine

Запущен Aug 31, 1995 с Plesetsk Cosmodrome

Loading…

Ближайшие Пролёты (ближайшие 24 часа)

TLE

СвежийSource: Space-Track

Эпоха: Sep 14, 2026, 14:43 UTC

1 23657U 95046A   26257.61362061  .00001025  00000-0  91280-4 0  9996
2 23657  82.5246 316.7752 0019028  28.0774 332.1469 14.94895938679348

Отслеживайте SICH 1 в реальном времени с AllMySat

Download on the App Store